Regional Weather Roundup
Issued by NWS

Home | Current Version | Previous Version | Graphics & Text | Print | Product List | Glossary On
Versions: 1 2 3 4 5 6 7 8 9 10 11 12 13 14 15 16 17 18 19 20 21 22 23 24 25 26 27 28 29 30 31 32 33 34 35 36 37 38 39 40 41 42 43 44 45 46 47 48 49 50
000
ASUS43 KLMK 150402
RWRKY
KENTUCKY REGIONAL WEATHER ROUNDUP
NATIONAL WEATHER SERVICE LOUISVILLE KY
1100 PM EST THU DEC 14 2017

NOTE "FAIR" INDICATES FEW OR NO CLOUDS BELOW 12,000 FEET
WITH NO SIGNIFICANT WEATHER AND/OR OBSTRUCTIONS TO VISIBILITY.

KYZ001>023-026-027-061>063-070>075-150500-
WESTERN AND SOUTH CENTRAL KENTUCKY

CITY           SKY/WX    TMP DP  RH WIND       PRES   REMARKS
PADUCAH        CLOUDY    33  20  58 NW3       30.14R
HENDERSON      CLOUDY    31  25  78 CALM      30.13R
OWENSBORO      CLOUDY    32  23  69 W3        30.12R
HOPKINSVILLE   CLOUDY    32  21  63 CALM      30.10S
BOWLING GREEN  CLOUDY    33  22  63 VRB5      30.11R WCI  29
GLASGOW        NOT AVBL
$$

KYZ024-025-028>034-038-045-046-053-150500-
NORTH CENTRAL KENTUCKY

CITY           SKY/WX    TMP DP  RH WIND       PRES   REMARKS
LOUISVILLE/SDF MOCLDY    28  17  63 NE6       30.09F WCI  22
LOUISVILLE/LOU CLEAR     27  18  69 NE3       30.10S
FORT KNOX      CLOUDY    28  19  69 N3        30.06S
$$

KYZ035>037-039>044-047>052-055>060-089>105-150500-
NORTHEAST KENTUCKY

CITY           SKY/WX    TMP DP  RH WIND       PRES   REMARKS
LEXINGTON      CLOUDY    24  17  74 NE7       30.06S WCI  16
COVINGTON      CLOUDY    25  17  72 NE6       30.07S WCI  18
FRANKFORT      CLOUDY    27  15  61 VRB3      30.07S
$$

KYZ054-064>069-076>088-106>120-150500-
SOUTHEAST KENTUCKY

CITY           SKY/WX    TMP DP  RH WIND       PRES   REMARKS
JACKSON        CLOUDY    30  20  66 CALM      30.03S
LONDON         CLOUDY    32  21  64 CALM      30.03R
SOMERSET       CLOUDY    32  21  64 CALM      30.07S
MIDDLESBORO    CLEAR     26  23  90 CALM      30.03S
MONTICELLO     CLOUDY    33  27  78 CALM      30.07S
$$




USA.gov is the U.S. government's official web portal to all federal, state and local government web resources and services.